This is the latest recevied weather packets stored in our database for station/object EA3HRE-13. If no packets are shown the sender has not sent any weather packets the latest 10 day(s).
| Time | Temp. | Humidity | Pressure | Rain* | Wind** | Luminosity | Snow |
|---|---|---|---|---|---|---|---|
| 1787561422 | 27.22° C | 100% | 1012.3 hPa | 0 mm | - | - | - |
| 1787560822 | 27.78° C | 100% | 1012.7 hPa | 0 mm | - | - | - |
| 1787560191 | 27.78° C | 100% | 1013.1 hPa | 0 mm | - | - | - |
| 1787559591 | 27.22° C | 100% | 1013.1 hPa | 0 mm | - | - | - |
| 1787558961 | 26.11° C | 100% | 1013.1 hPa | 0 mm | - | - | - |
| 1787558361 | 26.11° C | 100% | 1013.1 hPa | 0 mm | - | - | - |
| 1787557761 | 26.11° C | 100% | 1012.9 hPa | 0 mm | - | - | - |
| 1787557161 | 25.56° C | 100% | 1012.9 hPa | 0 mm | - | - | - |
| 1787556531 | 25° C | 100% | 1012.7 hPa | 0 mm | - | - | - |
| 1787555931 | 25° C | 100% | 1012.5 hPa | 0 mm | - | - | - |
| 1787555331 | 25° C | 100% | 1012.6 hPa | 0 mm | - | - | - |
| 1787554731 | 24.44° C | 100% | 1012.8 hPa | 0 mm | - | - | - |
| 1787410612 | 27.78° C | 100% | 1005.4 hPa | 0 mm | - | - | - |
| 1787410012 | 27.78° C | 100% | 1005.4 hPa | 0 mm | - | - | - |
| 1787409382 | 27.78° C | 100% | 1005.6 hPa | 0 mm | - | - | - |
| 1787408782 | 26.67° C | 100% | 1109.4 hPa | 0 mm | - | - | - |
| 1787408182 | 27.78° C | 100% | 1005.7 hPa | 0 mm | - | - | - |
| 1787407582 | 27.78° C | 100% | 1006 hPa | 0 mm | - | - | - |
| 1787406952 | 27.78° C | 100% | 1006 hPa | 0 mm | - | - | - |
| 1787406351 | 27.78° C | 100% | 1006.1 hPa | 0 mm | - | - | - |
| 1787405721 | 27.22° C | 100% | 1006.3 hPa | 0 mm | - | - | - |
| 1787405092 | 27.22° C | 100% | 1006.4 hPa | 0 mm | - | - | - |
| 1787404491 | 27.22° C | 100% | 1006.2 hPa | 0 mm | - | - | - |
| 1787403891 | 25.56° C | 100% | 1017 hPa | 0 mm | - | - | - |
| 1787392896 | 26.11° C | 100% | 1017 hPa | 0 mm | - | - | - |
* Rain latest hour (hover to see other rain measurements)
** Current wind speed in m/s (hover to see current wind gust speed)